| time (UTC) | temp F | wind direction | speed MPH | gust MPH | rain 1hr in | rain 24hr in | rain mn in | humidity % | barometer mb |
| 20260901070048 | 69 | 135 | 0.0 | 1.0 | 0.00 | 0.00 | 0.00 | 89 | 1017.0 |
| 20260901064545 | 69 | 146 | 0.0 | 1.0 | 0.00 | 0.00 | 0.00 | 88 | 1017.2 |
| 20260901063044 | 69 | 137 | 0.0 | 1.0 | 0.00 | 0.00 | 0.00 | 88 | 1017.2 |
| 20260901061538 | 70 | 137 | 0.0 | 1.0 | 0.00 | 0.00 | 0.00 | 87 | 1017.5 |
| 20260901060037 | 70 | 147 | 0.0 | 1.0 | 0.00 | 0.00 | 0.00 | 86 | 1017.7 |
| 20260901054538 | 69 | 159 | 0.0 | 1.0 | 0.00 | 0.00 | 0.00 | 86 | 1017.7 |
| 20260901053035 | 69 | 150 | 0.0 | 1.0 | 0.00 | 0.00 | 0.00 | 86 | 1017.6 |
| 20260901051536 | 69 | 177 | 0.0 | 1.0 | 0.00 | 0.00 | 0.00 | 86 | 1017.8 |
| 20260901050033 | 69 | 178 | 0.0 | 1.0 | 0.00 | 0.00 | 0.00 | 86 | 1018.0 |
| 20260901044532 | 69 | 174 | 0.0 | 1.0 | 0.00 | 0.01 | 0.00 | 85 | 1018.1 |
| 20260901043031 | 69 | 239 | 0.0 | 1.0 | 0.00 | 0.01 | 0.00 | 85 | 1018.2 |
| 20260901041531 | 70 | 144 | 0.0 | 1.0 | 0.00 | 0.01 | 0.00 | 85 | 1018.3 |
| 20260901040027 | 70 | 180 | 0.0 | 1.0 | 0.00 | 0.01 | 0.00 | 84 | 1018.4 |
| 20260901034530 | 70 | 175 | 0.0 | 1.0 | 0.00 | 0.02 | 0.01 | 83 | 1018.3 |
| 20260901033027 | 70 | 155 | 0.0 | 2.0 | 0.00 | 0.02 | 0.01 | 82 | 1018.4 |
| 20260901031531 | 69 | 168 | 0.0 | 3.0 | 0.00 | 0.02 | 0.01 | 82 | 1018.4 |
| 20260901030025 | 69 | 151 | 0.0 | 2.0 | 0.00 | 0.02 | 0.01 | 82 | 1018.4 |
| 20260901024525 | 69 | 154 | 0.0 | 2.0 | 0.00 | 0.02 | 0.01 | 82 | 1018.3 |
| 20260901023025 | 69 | 206 | 1.0 | 3.0 | 0.00 | 0.02 | 0.01 | 82 | 1018.4 |
| 20260901021525 | 69 | 148 | 0.0 | 2.0 | 0.00 | 0.02 | 0.01 | 82 | 1018.4 |
| 20260901020024 | 69 | 236 | 0.0 | 2.0 | 0.00 | 0.02 | 0.01 | 81 | 1018.7 |
| 20260901014523 | 69 | 132 | 0.0 | 3.0 | 0.00 | 0.02 | 0.01 | 81 | 1018.7 |
| 20260901013036 | 69 | 183 | 0.0 | 2.0 | 0.00 | 0.02 | 0.01 | 81 | 1018.8 |
| 20260901011533 | 69 | 100 | 0.0 | 3.0 | 0.00 | 0.02 | 0.01 | 82 | 1018.9 |
| 20260901010023 | 69 | 215 | 0.0 | 3.0 | 0.00 | 0.02 | 0.01 | 81 | 1018.7 |
| 20260901004520 | 70 | 182 | 0.0 | 5.0 | 0.00 | 0.02 | 0.01 | 80 | 1018.6 |
| 20260901003022 | 70 | 174 | 0.0 | 5.0 | 0.00 | 0.02 | 0.01 | 79 | 1018.5 |
| 20260901001520 | 70 | 130 | 0.0 | 3.0 | 0.00 | 0.02 | 0.01 | 79 | 1018.5 |
| 20260901000025 | 70 | 138 | 0.0 | 2.0 | 0.00 | 0.02 | 0.01 | 78 | 1018.7 |
| 20260831234519 | 70 | 149 | 0.0 | 2.0 | 0.00 | 0.02 | 0.01 | 77 | 1018.8 |
| 20260831233018 | 70 | 170 | 1.0 | 4.0 | 0.00 | 0.02 | 0.01 | 76 | 1018.8 |
| 20260831231518 | 70 | 225 | 0.0 | 3.0 | 0.00 | 0.02 | 0.01 | 76 | 1018.9 |
| 20260831230019 | 70 | 188 | 1.0 | 4.0 | 0.00 | 0.02 | 0.01 | 75 | 1018.8 |
| 20260831224517 | 70 | 216 | 0.0 | 4.0 | 0.00 | 0.02 | 0.01 | 77 | 1019.0 |
| 20260831223017 | 70 | 146 | 2.0 | 6.0 | 0.00 | 0.02 | 0.01 | 76 | 1018.8 |
| 20260831221516 | 71 | 151 | 0.0 | 4.0 | 0.00 | 0.02 | 0.01 | 78 | 1019.0 |
| 20260831220015 | 71 | 194 | 2.0 | 6.0 | 0.00 | 0.02 | 0.01 | 74 | 1019.1 |
| 20260831214518 | 72 | 232 | 2.0 | 4.0 | 0.00 | 0.02 | 0.01 | 72 | 1019.1 |
| 20260831213016 | 72 | 168 | 2.0 | 5.0 | 0.00 | 0.02 | 0.01 | 69 | 1019.1 |
| 20260831211516 | 72 | 186 | 3.0 | 7.0 | 0.00 | 0.02 | 0.01 | 69 | 1019.2 |
| 20260831210013 | 73 | 189 | 3.0 | 7.0 | 0.00 | 0.02 | 0.01 | 68 | 1019.5 |
| 20260831204513 | 74 | 303 | 2.0 | 9.0 | 0.00 | 0.02 | 0.01 | 66 | 1019.3 |
| 20260831203012 | 74 | 194 | 3.0 | 8.0 | 0.00 | 0.02 | 0.01 | 63 | 1019.1 |
| 20260831201515 | 73 | 182 | 3.0 | 8.0 | 0.00 | 0.02 | 0.01 | 71 | 1019.1 |
| 20260831200010 | 73 | 172 | 4.0 | 7.0 | 0.00 | 0.02 | 0.01 | 72 | 1019.3 |
| 20260831194514 | 73 | 236 | 3.0 | 8.0 | 0.00 | 0.02 | 0.01 | 73 | 1019.3 |
| 20260831193110 | 73 | 181 | 4.0 | 8.0 | 0.00 | 0.02 | 0.01 | 73 | 1019.5 |
| 20260831191509 | 74 | 183 | 3.0 | 8.0 | 0.00 | 0.02 | 0.01 | 71 | 1019.5 |
| 20260831190018 | 74 | 128 | 3.0 | 8.0 | 0.00 | 0.02 | 0.01 | 72 | 1019.5 |
| 20260831184507 | 74 | 162 | 5.0 | 9.0 | 0.00 | 0.02 | 0.01 | 72 | 1019.6 |
| 20260831183007 | 74 | 170 | 5.0 | 9.0 | 0.00 | 0.02 | 0.01 | 68 | 1019.6 |
| 20260831181507 | 75 | 126 | 3.0 | 9.0 | 0.00 | 0.02 | 0.01 | 69 | 1019.6 |
| 20260831180011 | 74 | 163 | 3.0 | 9.0 | 0.00 | 0.02 | 0.01 | 71 | 1020.0 |
| 20260831174505 | 74 | 101 | 3.0 | 9.0 | 0.00 | 0.02 | 0.01 | 71 | 1020.0 |
| 20260831173006 | 74 | 249 | 3.0 | 6.0 | 0.00 | 0.02 | 0.01 | 73 | 1020.1 |
| 20260831171504 | 74 | 190 | 4.0 | 7.0 | 0.00 | 0.02 | 0.01 | 72 | 1020.0 |
| 20260831170003 | 74 | 190 | 2.0 | 6.0 | 0.00 | 0.02 | 0.01 | 74 | 1019.8 |
| 20260831164601 | 74 | 199 | 3.0 | 7.0 | 0.00 | 0.02 | 0.01 | 74 | 1020.0 |
| 20260831163059 | 73 | 183 | 2.0 | 8.0 | 0.00 | 0.02 | 0.01 | 75 | 1020.1 |
| 20260831161558 | 73 | 175 | 4.0 | 8.0 | 0.00 | 0.02 | 0.01 | 74 | 1020.2 |
| 20260831160100 | 73 | 212 | 2.0 | 9.0 | 0.00 | 0.02 | 0.01 | 75 | 1020.3 |
| 20260831154601 | 73 | 168 | 2.0 | 7.0 | 0.00 | 0.02 | 0.01 | 77 | 1020.4 |
| 20260831153056 | 73 | 206 | 3.0 | 7.0 | 0.00 | 0.02 | 0.01 | 75 | 1020.5 |
| 20260831151555 | 74 | 158 | 2.0 | 6.0 | 0.00 | 0.02 | 0.01 | 73 | 1020.5 |
| 20260831150054 | 74 | 160 | 4.0 | 7.0 | 0.00 | 0.02 | 0.01 | 71 | 1020.4 |
| 20260831144551 | 75 | 162 | 2.0 | 7.0 | 0.00 | 0.02 | 0.01 | 69 | 1020.5 |
| 20260831143047 | 74 | 92 | 3.0 | 5.0 | 0.00 | 0.02 | 0.01 | 67 | 1020.6 |
| 20260831141551 | 74 | 181 | 1.0 | 5.0 | 0.00 | 0.02 | 0.01 | 70 | 1020.5 |
| 20260831140042 | 73 | 52 | 0.0 | 4.0 | 0.00 | 0.02 | 0.01 | 73 | 1020.3 |
| 20260831134546 | 72 | 92 | 1.0 | 4.0 | 0.00 | 0.02 | 0.01 | 73 | 1020.1 |
| 20260831133037 | 72 | 85 | 3.0 | 7.0 | 0.00 | 0.02 | 0.01 | 74 | 1020.1 |
| 20260831131536 | 71 | 58 | 1.0 | 8.0 | 0.00 | 0.02 | 0.01 | 75 | 1019.9 |
| 20260831130032 | 70 | 140 | 1.0 | 6.0 | 0.00 | 0.02 | 0.01 | 80 | 1019.7 |
| 20260831124532 | 70 | 18 | 1.0 | 4.0 | 0.00 | 0.02 | 0.01 | 81 | 1019.7 |
| 20260831123030 | 69 | 115 | 0.0 | 2.0 | 0.00 | 0.02 | 0.01 | 83 | 1019.7 |
| 20260831121530 | 68 | 145 | 0.0 | 4.0 | 0.00 | 0.02 | 0.01 | 85 | 1019.7 |
| 20260831120027 | 67 | 23 | 0.0 | 4.0 | 0.00 | 0.02 | 0.01 | 87 | 1019.6 |
| 20260831114526 | 66 | 24 | 0.0 | 3.0 | 0.00 | 0.02 | 0.01 | 89 | 1019.4 |
| 20260831113024 | 65 | 52 | 0.0 | 2.0 | 0.00 | 0.02 | 0.01 | 91 | 1019.0 |
| 20260831111523 | 65 | 75 | 0.0 | 1.0 | 0.00 | 0.02 | 0.01 | 91 | 1019.0 |
| 20260831110022 | 65 | 69 | 0.0 | 2.0 | 0.00 | 0.02 | 0.01 | 91 | 1018.9 |
| 20260831104526 | 64 | 38 | 0.0 | 1.0 | 0.00 | 0.02 | 0.01 | 91 | 1018.9 |
| 20260831103020 | 64 | 256 | 0.0 | 1.0 | 0.00 | 0.02 | 0.01 | 92 | 1018.9 |
| 20260831101520 | 64 | 256 | 0.0 | 1.0 | 0.00 | 0.02 | 0.01 | 92 | 1018.8 |
| 20260831100019 | 64 | 256 | 0.0 | 0.0 | 0.00 | 0.02 | 0.01 | 93 | 1018.7 |
| 20260831094516 | 64 | 256 | 0.0 | 1.0 | 0.00 | 0.02 | 0.01 | 93 | 1018.5 |
| 20260831093017 | 64 | 256 | 0.0 | 0.0 | 0.00 | 0.02 | 0.01 | 93 | 1018.6 |
| 20260831091516 | 64 | 256 | 0.0 | 1.0 | 0.00 | 0.02 | 0.01 | 93 | 1018.5 |
| 20260831090013 | 64 | 256 | 0.0 | 0.0 | 0.00 | 0.02 | 0.01 | 93 | 1018.5 |
| 20260831084520 | 64 | 256 | 0.0 | 0.0 | 0.00 | 0.02 | 0.01 | 93 | 1018.4 |
| 20260831083011 | 64 | 256 | 0.0 | 0.0 | 0.00 | 0.02 | 0.01 | 92 | 1018.4 |
| 20260831081508 | 65 | 256 | 0.0 | 0.0 | 0.00 | 0.02 | 0.01 | 92 | 1018.5 |
| 20260831080007 | 65 | 256 | 0.0 | 1.0 | 0.00 | 0.02 | 0.01 | 92 | 1018.4 |
| 20260831074505 | 65 | 256 | 0.0 | 1.0 | 0.00 | 0.02 | 0.01 | 92 | 1018.4 |
| 20260831073003 | 65 | 256 | 0.0 | 0.0 | 0.00 | 0.02 | 0.01 | 91 | 1018.3 |
| 20260831071502 | 66 | 256 | 0.0 | 1.0 | 0.00 | 0.02 | 0.01 | 91 | 1018.1 |